SCP
0 0 0 0 0 -0 -0 -0 -0 -0 -0 -0 -0 -0 -0 -0 -0 -0 -0 -0 -0 -0 -0 -0 -0 -0 -0
0 0 0 0 0 -0 -0 -0 -0 -0 -0 -0 0 0 -0 -0 -0 -0 -0 -0 -0 -0 -0 -0 -0 -0 0
0 0 0 0 0 0 -0 -0 0 0 0 0 0 0 -0 -0 -0 -0 -0 0 -0 -0 -0 -0 -0 0 0
0 0 0 0 0 0 0 0 0 0 0 0 0 0 0 0 0 0 0 0 0 0 0 0 0 0 0
0 0 0 0 0 0 0 0 0 0 0 0 0 0 0 0 0 0 0 0 0 0 0 0 0 0 0
0 0 0 0 0 0 0 0 0 0 0 0 0 0 0 0 0 0 0 0 0 0 0 0 0 0 0
0 0 0 0 0 0 0 0 0 0 0 0 0 0 0 0 0 0 0 0 0 0 0 0 0 0 0
0 0 0 0 0 -0 0 0 0 0 0 0 0 0 0 0 0 0 0 0 0 0 0 0 0 0 0
0 0 0 0 0 0 0 0 0 0 0 0 0 0 0 0 0 0 0 0 0 0 0 0 0 0 0
0 0 0 0 0 0 0 0 0 0 0 0 0 0 0 0 0 0 0 0 0 0 0 0 0 0 0
0 0 0 0 0 0 0 0 0 0 0 0 0 0 0 0 0 0 0 0 0 0 0 0 0 0 0
0 0 0 0 0 0 0 0 0 0 0 0 0 0 0 0 0 0 0 0 0 0 0 0 0 0 0
0 0 0 0 0 0 0 0 0 0 0 0 0 0 0 0 0 0 0 0 0 0 0 0 0 0 0
0 0 0 0 0 0 0 0 0 0 0 0 0 0 0 0 0 0 0 0 0 0 0 0 0 0 0
0 0 0 0 0 0 0 0 0 0 0 0 0 0 0 0 0 0 0 0 0 0 0 0 0 0 0
0 0 0 0 0 0 0 0 0 0 0 0 0 0 0 0 0 0 0 0 0 0 0 0 0 0 0
Wind_Speed_500mb
20 20 23 28 34 35 30 23 23 21 22 23 23 24 26 27 29 29 29 27 24 21 17 13 15 15 16
23 20 21 26 29 29 30 26 24 25 24 23 22 22 23 25 25 25 24 21 18 16 14 9 10 14 15
24 22 23 23 26 29 26 24 26 24 23 23 22 21 21 22 21 19 16 14 11 12 11 5 8 11 12
25 26 29 27 25 26 27 28 27 24 24 22 21 19 19 18 17 13 10 10 8 8 7 2 4 8 11
29 28 31 30 28 29 30 28 29 26 25 22 20 19 18 15 12 10 8 7 7 6 5 1 4 6 10
28 32 32 32 31 33 28 25 29 25 24 22 20 18 15 13 12 10 8 6 6 4 2 2 4 6 8
30 31 37 36 34 32 29 23 24 23 22 21 21 19 17 16 13 10 8 7 7 4 2 3 9 7 9
37 31 37 39 36 36 31 25 24 23 24 23 22 20 18 15 12 11 10 9 8 1 1 6 10 9 13
45 37 40 41 40 38 33 29 27 29 28 26 23 22 19 16 14 14 13 12 9 9 7 9 13 15 17
53 46 46 45 43 39 35 35 34 33 32 29 27 25 22 21 20 20 18 18 16 15 12 14 17 16 17
58 53 50 49 48 44 42 41 39 38 35 32 32 29 28 27 26 25 23 20 19 17 17 15 18 20 17
65 58 56 54 53 50 48 46 43 42 40 39 37 35 33 32 31 32 30 26 22 18 16 17 22 24 22
74 69 70 67 62 58 55 50 49 48 45 45 43 41 40 38 33 32 33 30 25 22 21 19 22 23 22
84 81 77 71 66 61 57 56 55 53 51 51 50 48 46 42 38 37 40 36 30 30 30 25 21 25 31
81 84 84 77 73 71 67 64 63 60 57 57 54 52 51 48 45 39 38 37 35 35 37 35 20 21 31
79 88 93 92 87 80 74 66 66 65 63 61 59 56 55 54 52 45 40 40 43 44 42 47 46 32 23
Wind_Direction_500mb
150 155 154 156 156 161 157 149 136 131 133 125 119 119 118 115 114 114 111 109 104 96 90 80 71 58 45
164 162 166 158 162 167 166 146 142 143 142 133 130 125 121 120 119 119 117 114 109 104 101 85 62 49 37
182 175 176 170 175 179 180 163 148 147 146 140 135 129 127 127 128 125 119 110 104 101 108 102 41 32 19
196 190 186 185 182 183 174 162 156 156 151 146 143 142 140 137 136 132 129 121 109 111 117 95 24 10 353
203 200 196 192 190 185 176 170 167 165 160 157 158 158 155 151 146 151 144 132 127 124 117 287 336 347 340
211 214 207 202 194 189 188 181 177 174 169 171 171 170 168 171 172 175 165 149 144 144 154 268 305 320 325
215 217 214 207 203 202 203 194 193 189 187 183 187 183 186 189 186 184 181 173 163 143 119 347 319 299 309
222 222 218 212 208 206 211 208 205 206 206 201 201 198 201 203 202 200 201 194 185 145 159 264 294 276 307
228 220 221 217 218 218 215 213 210 212 213 212 213 214 216 217 219 220 218 214 207 202 207 243 261 259 291
226 226 225 220 222 223 220 221 218 218 219 218 224 225 228 229 231 230 227 227 218 211 226 251 252 239 279
227 232 233 227 225 225 223 223 223 224 225 227 229 230 234 236 242 238 237 235 226 214 224 245 225 236 271
227 228 237 235 232 230 229 228 229 232 231 232 233 235 239 242 244 243 238 231 227 225 245 250 243 247 261
223 223 231 231 232 234 233 232 231 233 235 238 241 242 244 246 253 253 242 233 226 213 230 233 233 237 249
224 226 232 234 235 237 237 236 235 234 236 240 242 244 246 249 250 246 236 232 230 219 233 238 211 225 234
229 229 230 236 238 237 236 235 236 237 237 241 244 246 247 249 247 247 239 231 230 225 239 232 225 230 238
231 231 229 233 234 236 238 239 239 240 241 243 245 245 245 248 246 244 239 230 234 234 243 244 247 253 231
Wind_Speed_850mb
20 20 23 28 34 35 30 23 23 21 22 23 23 24 26 27 29 29 29 27 24 21 17 13 15 15 16
23 20 21 26 29 29 30 26 24 25 24 23 22 22 23 25 25 25 24 21 18 16 14 9 10 14 15
24 22 23 23 26 29 26 24 26 24 23 23 22 21 21 22 21 19 16 14 11 12 11 5 8 11 12
25 26 29 27 25 26 27 28 27 24 24 22 21 19 19 18 17 13 10 10 8 8 7 2 4 8 11
29 28 31 30 28 29 30 28 29 26 25 22 20 19 18 15 12 10 8 7 7 6 5 1 4 6 10
28 32 32 32 31 33 28 25 29 25 24 22 20 18 15 13 12 10 8 6 6 4 2 2 4 6 8
30 31 37 36 34 32 29 23 24 23 22 21 21 19 17 16 13 10 8 7 7 4 2 3 9 7 9
37 31 37 39 36 36 31 25 24 23 24 23 22 20 18 15 12 11 10 9 8 1 1 6 10 9 13
45 37 40 41 40 38 33 29 27 29 28 26 23 22 19 16 14 14 13 12 9 9 7 9 13 15 17
53 46 46 45 43 39 35 35 34 33 32 29 27 25 22 21 20 20 18 18 16 15 12 14 17 16 17
58 53 50 49 48 44 42 41 39 38 35 32 32 29 28 27 26 25 23 20 19 17 17 15 18 20 17
65 58 56 54 53 50 48 46 43 42 40 39 37 35 33 32 31 32 30 26 22 18 16 17 22 24 22
74 69 70 67 62 58 55 50 49 48 45 45 43 41 40 38 33 32 33 30 25 22 21 19 22 23 22
84 81 77 71 66 61 57 56 55 53 51 51 50 48 46 42 38 37 40 36 30 30 30 25 21 25 31
81 84 84 77 73 71 67 64 63 60 57 57 54 52 51 48 45 39 38 37 35 35 37 35 20 21 31
79 88 93 92 87 80 74 66 66 65 63 61 59 56 55 54 52 45 40 40 43 44 42 47 46 32 23
Wind_Direction_850mb
150 155 154 156 156 161 157 149 136 131 133 125 119 119 118 115 114 114 111 109 104 96 90 80 71 58 45
164 162 166 158 162 167 166 146 142 143 142 133 130 125 121 120 119 119 117 114 109 104 101 85 62 49 37
182 175 176 170 175 179 180 163 148 147 146 140 135 129 127 127 128 125 119 110 104 101 108 102 41 32 19
196 190 186 185 182 183 174 162 156 156 151 146 143 142 140 137 136 132 129 121 109 111 117 95 24 10 353
203 200 196 192 190 185 176 170 167 165 160 157 158 158 155 151 146 151 144 132 127 124 117 287 336 347 340
211 214 207 202 194 189 188 181 177 174 169 171 171 170 168 171 172 175 165 149 144 144 154 268 305 320 325
215 217 214 207 203 202 203 194 193 189 187 183 187 183 186 189 186 184 181 173 163 143 119 347 319 299 309
222 222 218 212 208 206 211 208 205 206 206 201 201 198 201 203 202 200 201 194 185 145 159 264 294 276 307
228 220 221 217 218 218 215 213 210 212 213 212 213 214 216 217 219 220 218 214 207 202 207 243 261 259 291
226 226 225 220 222 223 220 221 218 218 219 218 224 225 228 229 231 230 227 227 218 211 226 251 252 239 279
227 232 233 227 225 225 223 223 223 224 225 227 229 230 234 236 242 238 237 235 226 214 224 245 225 236 271
227 228 237 235 232 230 229 228 229 232 231 232 233 235 239 242 244 243 238 231 227 225 245 250 243 247 261
223 223 231 231 232 234 233 232 231 233 235 238 241 242 244 246 253 253 242 233 226 213 230 233 233 237 249
224 226 232 234 235 237 237 236 235 234 236 240 242 244 246 249 250 246 236 232 230 219 233 238 211 225 234
229 229 230 236 238 237 236 235 236 237 237 241 244 246 247 249 247 247 239 231 230 225 239 232 225 230 238
231 231 229 233 234 236 238 239 239 240 241 243 245 245 245 248 246 244 239 230 234 234 243 244 247 253 231